{"data":{"norad_id":63717,"intl_designator":"2025-087W","name":"STARLINK-33725","alt_names":[],"object_type":"PAYLOAD","status":"ACTIVE","operator":null,"country":"US","launch_date":"2025-04-28","launch_site_code":"AFWTR","launch_vehicle":null,"mission":null,"orbit_class":"UNKNOWN","rcs_meters":null,"size_class":null,"mass_kg":null,"dimensions":null,"purposes":["comms"],"wikipedia_slug":null,"has_3d_model":false,"image_url":null,"decayed_at":null,"tle_current":{"epoch":"2026-05-25T04:34:25.807008Z","epoch_age_seconds":48834,"freshness":"FRESH","line1":"1 63717U 25087W   26145.19057647  .00010386  00000+0  36227-3 0  9993","line2":"2 63717  53.1580 224.1143 0001144  81.4928 278.6202 15.30201421 60919","mean_motion":15.30201421,"eccentricity":0.0001144,"inclination_deg":53.158,"raan_deg":224.1143,"arg_perigee_deg":81.4928,"mean_anomaly_deg":278.6202,"bstar":0.00036227,"rev_number":6091,"period_min":94.10525831684,"perigee_km":474.42680358138,"apogee_km":475.9948495641,"semimajor_km":6853.3478265727,"source":"CELESTRAK","updated_at":"2026-05-25T13:38:20.100942Z"}}}